Regional Weather Roundup
Issued by NWS

Home | Current Version | Previous Version | Graphics & Text | Print | Product List | Glossary On
Versions: 1 2 3 4 5 6 7 8 9 10 11 12 13 14 15 16 17 18 19 20 21 22 23 24 25 26 27 28
000
ASUS45 KCYS 241410
RWRWY

WYOMING REGIONAL WEATHER ROUNDUP
NATIONAL WEATHER SERVICE CHEYENNE WY
800 AM MDT MON APR 24 2017

NOTE:  "FAIR" INDICATES FEW OR NO CLOUDS BELOW 12,000 FEET
WITH NO SIGNIFICANT WEATHER AND/OR OBSTRUCTIONS TO VISIBILITY.

WYZ001-241500-
YELLOWSTONE NATIONAL PARK

CITY           SKY/WX    TMP DP  RH WIND       PRES   REMARKS
LK YELLOWSTONE   N/A     30  30 100 CALM      29.74F
W YELLOWSTONE  NOT AVBL

$$
WYZ002>013-054>058-071-098>099-241500-
NORTHERN WYOMING

CITY           SKY/WX    TMP DP  RH WIND       PRES   REMARKS
JACKSON        PTSUNNY   37  36  93 CALM      29.72F
CODY           FAIR      43  35  73 SW5       29.69S
GREYBULL       FAIR      44  37  76 E7        29.67S
WORLAND        FAIR      44  39  82 S6        29.67S
SHERIDAN       FAIR      45  39  79 CALM      29.67S
BUFFALO        FAIR      44  34  67 E3        29.68S
GILLETTE       FAIR      46  41  82 NW10      29.66S
HULETT         CLOUDY    43  39  87 NW8       29.67S
NEWCASTLE      PTSUNNY   45  37  76 NW18G25   29.66F

$$
WYZ014>020-022>026-101>103-241500-
CENTRAL WYOMING

CITY           SKY/WX    TMP DP  RH WIND       PRES   REMARKS
BIG PINEY      LGT SNOW  33  31  92 CALM      29.77F FOG
PINEDALE       FAIR      32  32 100 E6        29.77F WCI  26
DUBOIS         FAIR      37  28  70 N3        29.71F
LANDER         CLOUDY    43  30  60 N5        29.69F
RIVERTON       CLOUDY    45  31  58 W6        29.70F
CASPER         FAIR      44  34  67 SW12      29.70F
DOUGLAS        FAIR      45  39  79 NW7       29.71F

$$
WYZ021-027>030-104>119-241500-
SOUTHERN WYOMING

CITY           SKY/WX    TMP DP  RH WIND       PRES   REMARKS
EVANSTON       FAIR      36  28  73 S6        29.77F WCI  31
KEMMERER         N/A     32  30  93 N6        29.77F WCI  26
FORT BRIDGER   PTSUNNY   39  31  72 S8        29.80S WCI  34
ROCK SPRINGS   PTSUNNY   38  33  82 SE7       29.78F WCI  33
DIXON            N/A     39  36  89 CALM      29.85F
RAWLINS        FAIR      41  35  79 SW12      29.77F
SARATOGA       FAIR      41  36  81 SW10      29.79S
LARAMIE        FAIR      40  31  70 W7        29.77R
CHEYENNE       FAIR      48  30  49 NW18G25   29.73F
TORRINGTON     FAIR      51  41  68 NW15      29.66R
PINE BLUFFS    FAIR      50  32  50 NW25G31   29.70S

$$




USA.gov is the U.S. government's official web portal to all federal, state and local government web resources and services.